Flag for U.S.A. Weather past 2 weeks in Palestine, Texas, U.S.A.

Now
59 °F

Cloudy.


Feels Like: 56 °F
Forecast: 41 / 64 °F
Wind: 14 mph from Northwest

Location: Palestine Municipal Airport

Current Time: Feb 1, 2015 at 3:23:32 PM

Latest Report: Feb 1, 2015 at 2:55 PM


Visibility: 10 mi

Pressure: 29.96 "Hg

Humidity: 76%

Dew point: 51 °F

Location of PalestineLocation

Historic Weather in Palestine — Graph

°F

Palestine temperature yesterday

Maximum temperature yesterday: 59 °F (at 3:15 PM)
Minimum temperature yesterday: 43 °F (at 7:55 AM)
Average temperature yesterday: 52 °F

Past Weeks' High & Low Weather Summary

 TemperatureHumidityPressure
High80 °F (Jan 28, 3:15 PM)100% (Jan 20, 3:15 AM)30.49 "Hg (Jan 20, 3:15 AM)
Low28 °F (Jan 24, 7:15 AM)17% (Jan 18, 1:50 PM)29.88 "Hg (Feb 1, 6:55 AM)
Average53 °F67%30.15 "Hg
* Reported Jan 17 2:15 PM — Feb 1 2:15 PM, Palestine, Weather by CustomWeather, © 2014

Note: Actual official high and low records may vary slightly from our data, if they occured in-between our weather recording intervals... More about our weather records

Advertising

Palestine weather history for previous 24 hours

 ConditionsComfort  
Time TempWeatherWind HumidityBarometerVisibility
2:15 PM
Feb 1
60 °FMostly cloudy.9 mph77%29.95 "Hg10 mi
1:55 PM61 °FCloudy.14 mph78%29.95 "Hg10 mi
1:15 PM66 °FMore clouds than sun.10 mph72%29.93 "Hg10 mi
12:55 PM65 °FBroken clouds.13 mph78%29.92 "Hg10 mi
12:35 PM65 °FScattered clouds.9 mph81%29.91 "Hg10 mi
12:15 PM62 °FDrizzle. Cloudy.7 mph92%29.92 "Hg10 mi
11:55 AM63 °FRain. Cloudy.16 mph87%29.93 "Hg10 mi
11:15 AM69 °FScattered clouds.14 mph79%29.91 "Hg10 mi
10:55 AM67 °FBroken clouds.12 mph85%29.91 "Hg10 mi
10:35 AM64 °FOvercast.9 mph91%29.92 "Hg10 mi
10:15 AM64 °FMostly cloudy.9 mph92%29.92 "Hg10 mi
9:55 AM64 °FMostly cloudy.9 mph96%29.91 "Hg10 mi
9:15 AM63 °FLow clouds.9 mph100%29.91 "Hg7 mi
8:55 AM62 °FLow clouds.7 mph100%29.90 "Hg7 mi
8:35 AM62 °FLow clouds.8 mph100%29.89 "Hg7 mi
8:15 AM62 °FFog.9 mph100%29.89 "Hg5 mi
7:55 AM61 °FFog.8 mph100%29.88 "Hg5 mi
7:35 AM61 °FFog.10 mph100%29.88 "Hg5 mi
7:15 AM60 °FFog.10 mph100%29.88 "Hg4 mi
6:55 AM60 °FFog.9 mph100%29.88 "Hg4 mi
6:15 AM60 °FFog.8 mph100%29.89 "Hg2 mi
5:55 AM60 °FFog.8 mph100%29.89 "Hg3 mi
5:35 AM59 °FFog.9 mph100%29.89 "Hg4 mi
5:15 AM59 °FLight rain. Low clouds.9 mph100%29.89 "Hg5 mi
4:55 AM59 °FLight rain. Low clouds.7 mph100%29.90 "Hg5 mi
4:35 AM58 °FFog.10 mph100%29.90 "Hg5 mi
4:15 AM58 °FFog.9 mph100%29.90 "Hg4 mi
3:55 AM58 °FFog.7 mph100%29.91 "Hg5 mi
3:35 AM58 °FFog.8 mph100%29.91 "Hg5 mi
3:15 AM58 °FFog.10 mph99%29.92 "Hg5 mi
2:55 AM58 °FLight rain. Low clouds.8 mph97%29.92 "Hg7 mi
2:35 AM58 °FLow clouds.12 mph95%29.92 "Hg7 mi
2:15 AM58 °FLow clouds.9 mph94%29.92 "Hg7 mi
1:55 AM58 °FLow clouds.8 mph95%29.92 "Hg7 mi
1:35 AM57 °FLow clouds.9 mph95%29.93 "Hg10 mi
1:15 AM57 °FRain. Low clouds.9 mph94%29.94 "Hg10 mi
12:55 AM57 °FLow clouds.9 mph94%29.94 "Hg10 mi
12:35 AM57 °FLow clouds.8 mph93%29.95 "Hg10 mi
12:15 AM57 °FOvercast.9 mph93%29.96 "Hg10 mi
11:55 PM
Jan 31
57 °FOvercast.8 mph91%29.97 "Hg10 mi
11:15 PM57 °FLight rain. Overcast.9 mph92%29.98 "Hg10 mi
10:55 PM56 °FOvercast.9 mph92%29.95 "Hg10 mi
10:35 PM56 °FDrizzle. Overcast.8 mph92%29.97 "Hg10 mi
10:15 PM56 °FDrizzle. Mostly cloudy.8 mph91%29.95 "Hg10 mi
9:55 PM56 °FLight rain. Mostly cloudy.10 mph89%29.96 "Hg7 mi
9:15 PM56 °FLight rain. Overcast.12 mph82%29.98 "Hg10 mi
8:55 PM57 °FLight rain. Overcast.12 mph79%30.00 "Hg10 mi
8:15 PM57 °FOvercast.10 mph73%30.01 "Hg10 mi
7:55 PM57 °FOvercast.9 mph72%30.02 "Hg10 mi
7:35 PM57 °FOvercast.8 mph69%30.03 "Hg10 mi
7:15 PM57 °FOvercast.8 mph68%30.03 "Hg10 mi
6:55 PM57 °FOvercast.10 mph67%30.03 "Hg10 mi
6:15 PM57 °FOvercast.7 mph67%30.03 "Hg10 mi
5:55 PM58 °FMostly cloudy.8 mph67%30.03 "Hg10 mi
5:35 PM58 °FBroken clouds.10 mph67%30.03 "Hg10 mi
5:15 PM58 °FBroken clouds.10 mph66%30.03 "Hg10 mi
4:55 PM58 °FOvercast.7 mph65%30.05 "Hg10 mi
4:35 PM58 °FOvercast.6 mph64%30.05 "Hg10 mi
4:15 PM58 °FPartly sunny.12 mph63%30.06 "Hg10 mi
3:55 PM58 °FSunny.8 mph64%30.05 "Hg10 mi
3:15 PM59 °FBroken clouds.9 mph60%30.06 "Hg10 mi
Weather by CustomWeather, © 2014

See weather overviewHow to use our weather pages